Time,TemperatureF,DewpointF,PressureIn,WindDirection,WindDirectionDegrees,WindSpeedMPH,WindSpeedGustMPH,Humidity,HourlyPrecipIn,Conditions,Clouds,dailyrainin,SoftwareType,DateUTC
2013-05-26 00:05:00,49.4,48.0,30.30,NNW,342,0.0,2.0,95,0.00,,,0.00,Wunderground v.1.15,2013-05-26 04:05:00,
2013-05-26 00:10:00,49.5,48.1,30.30,NNW,342,0.0,2.0,95,0.00,,,0.00,Wunderground v.1.15,2013-05-26 04:10:00,
2013-05-26 00:15:00,49.5,48.4,30.30,NNW,342,0.0,2.0,96,0.00,,,0.00,Wunderground v.1.15,2013-05-26 04:15:00,
2013-05-26 00:20:00,49.5,48.4,30.29,NNW,342,0.0,2.0,96,0.00,,,0.00,Wunderground v.1.15,2013-05-26 04:20:00,
2013-05-26 00:25:00,49.6,48.5,30.29,NNW,342,0.0,2.0,96,0.00,,,0.00,Wunderground v.1.15,2013-05-26 04:25:00,
2013-05-26 00:30:00,49.5,48.4,30.29,NNW,342,0.0,2.0,96,0.00,,,0.00,Wunderground v.1.15,2013-05-26 04:30:00,
2013-05-26 00:35:00,49.4,48.0,30.28,NNW,342,0.0,2.0,95,0.00,,,0.00,Wunderground v.1.15,2013-05-26 04:35:00,
2013-05-26 00:40:00,49.1,47.7,30.28,NNW,342,0.0,2.0,95,0.00,,,0.00,Wunderground v.1.15,2013-05-26 04:40:00,
2013-05-26 00:45:00,49.0,47.6,30.27,NNW,342,0.0,2.0,95,0.00,,,0.00,Wunderground v.1.15,2013-05-26 04:45:00,
2013-05-26 00:50:00,48.9,47.5,30.27,NNW,342,0.0,2.0,95,0.00,,,0.00,Wunderground v.1.15,2013-05-26 04:50:00,
2013-05-26 01:00:00,48.7,47.3,30.26,NNW,342,0.0,2.0,95,0.00,,,0.00,Wunderground v.1.15,2013-05-26 05:00:00,
2013-05-26 01:05:00,48.7,47.6,30.26,NNW,342,0.0,2.0,96,0.00,,,0.00,Wunderground v.1.15,2013-05-26 05:05:00,
2013-05-26 01:10:00,48.8,47.7,30.26,NNW,342,0.0,2.0,96,0.00,,,0.00,Wunderground v.1.15,2013-05-26 05:10:00,
2013-05-26 01:15:00,49.0,48.2,30.26,NNW,342,0.0,2.0,97,0.00,,,0.00,Wunderground v.1.15,2013-05-26 05:15:00,
2013-05-26 01:20:00,49.2,48.4,30.27,NNW,342,0.0,2.0,97,0.00,,,0.00,Wunderground v.1.15,2013-05-26 05:20:00,
2013-05-26 01:25:00,49.2,48.4,30.26,NNW,342,0.0,2.0,97,0.00,,,0.00,Wunderground v.1.15,2013-05-26 05:25:00,
2013-05-26 01:30:00,49.4,48.6,30.26,NNW,342,0.0,2.0,97,0.00,,,0.00,Wunderground v.1.15,2013-05-26 05:30:00,
2013-05-26 01:35:00,49.4,48.6,30.26,NNW,342,0.0,2.0,97,0.00,,,0.00,Wunderground v.1.15,2013-05-26 05:35:00,
2013-05-26 01:40:00,49.4,48.6,30.26,NNW,342,0.0,2.0,97,0.00,,,0.00,Wunderground v.1.15,2013-05-26 05:40:00,
2013-05-26 01:50:00,49.4,48.6,30.25,NNW,342,0.0,2.0,97,0.00,,,0.00,Wunderground v.1.15,2013-05-26 05:50:00,
2013-05-26 01:55:00,49.4,48.6,30.25,NNW,342,0.0,2.0,97,0.00,,,0.00,Wunderground v.1.15,2013-05-26 05:55:00,
2013-05-26 02:05:00,49.2,48.4,30.25,NNW,342,0.0,2.0,97,0.00,,,0.00,Wunderground v.1.15,2013-05-26 06:05:00,
2013-05-26 02:10:00,49.0,48.2,30.25,NNW,342,0.0,2.0,97,0.00,,,0.00,Wunderground v.1.15,2013-05-26 06:10:00,
2013-05-26 02:15:00,48.9,48.1,30.25,NNW,342,0.0,2.0,97,0.00,,,0.00,Wunderground v.1.15,2013-05-26 06:15:00,
2013-05-26 02:20:00,48.7,47.6,30.24,NNW,342,0.0,2.0,96,0.00,,,0.00,Wunderground v.1.15,2013-05-26 06:20:00,
2013-05-26 02:30:00,48.3,47.2,30.24,NNW,342,0.0,2.0,96,0.00,,,0.00,Wunderground v.1.15,2013-05-26 06:30:00,
2013-05-26 02:35:00,48.1,47.0,30.25,NNW,342,0.0,2.0,96,0.00,,,0.00,Wunderground v.1.15,2013-05-26 06:35:00,
2013-05-26 02:45:00,47.7,46.3,30.24,NNW,342,0.0,2.0,95,0.00,,,0.00,Wunderground v.1.15,2013-05-26 06:45:00,
2013-05-26 02:50:00,47.5,46.1,30.25,NNW,342,0.0,2.0,95,0.00,,,0.00,Wunderground v.1.15,2013-05-26 06:50:00,
2013-05-26 02:55:00,47.4,46.0,30.25,NNW,342,0.0,2.0,95,0.00,,,0.00,Wunderground v.1.15,2013-05-26 06:55:00,
2013-05-26 03:00:00,47.2,45.8,30.25,NNW,342,0.0,2.0,95,0.00,,,0.00,Wunderground v.1.15,2013-05-26 07:00:00,
2013-05-26 03:10:00,46.8,45.4,30.24,NNW,342,0.0,2.0,95,0.00,,,0.00,Wunderground v.1.15,2013-05-26 07:10:00,
2013-05-26 03:15:00,46.6,45.2,30.24,NNW,342,0.0,2.0,95,0.00,,,0.00,Wunderground v.1.15,2013-05-26 07:15:00,
2013-05-26 03:20:00,46.4,45.0,30.24,NNW,342,0.0,2.0,95,0.00,,,0.00,Wunderground v.1.15,2013-05-26 07:20:00,
2013-05-26 03:30:00,45.9,44.5,30.23,NNW,342,0.0,2.0,95,0.00,,,0.00,Wunderground v.1.15,2013-05-26 07:30:00,
2013-05-26 03:35:00,45.7,44.4,30.23,NNW,342,0.0,2.0,95,0.00,,,0.00,Wunderground v.1.15,2013-05-26 07:35:00,
2013-05-26 03:40:00,45.6,44.5,30.23,NNW,342,0.0,2.0,96,0.00,,,0.00,Wunderground v.1.15,2013-05-26 07:40:00,
2013-05-26 03:45:00,45.4,44.3,30.23,NNW,342,0.0,2.0,96,0.00,,,0.00,Wunderground v.1.15,2013-05-26 07:45:00,
2013-05-26 03:50:00,45.2,44.1,30.23,NNW,342,0.0,2.0,96,0.00,,,0.00,Wunderground v.1.15,2013-05-26 07:50:00,
2013-05-26 03:55:00,45.1,44.0,30.23,NNW,342,0.0,2.0,96,0.00,,,0.00,Wunderground v.1.15,2013-05-26 07:55:00,
2013-05-26 04:00:00,45.0,43.9,30.23,NNW,342,0.0,2.0,96,0.00,,,0.00,Wunderground v.1.15,2013-05-26 08:00:00,
2013-05-26 04:05:00,44.9,43.8,30.22,NNW,342,0.0,2.0,96,0.00,,,0.00,Wunderground v.1.15,2013-05-26 08:05:00,
2013-05-26 04:15:00,44.7,43.6,30.22,NNW,342,0.0,2.0,96,0.00,,,0.00,Wunderground v.1.15,2013-05-26 08:15:00,
2013-05-26 04:20:00,44.6,43.8,30.23,NNW,342,0.0,2.0,97,0.00,,,0.00,Wunderground v.1.15,2013-05-26 08:20:00,
2013-05-26 04:25:00,44.6,43.8,30.23,NNW,342,0.0,2.0,97,0.00,,,0.00,Wunderground v.1.15,2013-05-26 08:25:00,
2013-05-26 04:30:00,44.5,43.7,30.23,NNW,342,0.0,2.0,97,0.00,,,0.00,Wunderground v.1.15,2013-05-26 08:30:00,
2013-05-26 04:40:00,44.6,43.8,30.22,NNW,342,0.0,2.0,97,0.00,,,0.00,Wunderground v.1.15,2013-05-26 08:40:00,
2013-05-26 04:45:00,44.6,43.8,30.23,NNW,342,0.0,2.0,97,0.00,,,0.00,Wunderground v.1.15,2013-05-26 08:45:00,
2013-05-26 04:50:00,44.6,43.8,30.23,NNW,342,0.0,2.0,97,0.00,,,0.00,Wunderground v.1.15,2013-05-26 08:50:00,
2013-05-26 04:55:00,44.6,43.8,30.24,NNW,342,0.0,2.0,97,0.00,,,0.00,Wunderground v.1.15,2013-05-26 08:55:00,
2013-05-26 05:00:00,44.8,44.3,30.24,NNW,342,0.0,2.0,98,0.00,,,0.00,Wunderground v.1.15,2013-05-26 09:00:00,
2013-05-26 05:05:00,44.9,44.4,30.24,NNW,342,0.0,2.0,98,0.00,,,0.00,Wunderground v.1.15,2013-05-26 09:05:00,
2013-05-26 05:10:00,45.2,44.7,30.24,NNW,342,0.0,2.0,98,0.00,,,0.00,Wunderground v.1.15,2013-05-26 09:10:00,
2013-05-26 05:15:00,45.5,45.0,30.24,NNW,342,0.0,2.0,98,0.00,,,0.00,Wunderground v.1.15,2013-05-26 09:15:00,
2013-05-26 05:20:00,45.7,45.2,30.24,NNW,342,0.0,2.0,98,0.00,,,0.00,Wunderground v.1.15,2013-05-26 09:20:00,
2013-05-26 05:25:00,45.9,45.4,30.24,NNW,342,0.0,2.0,98,0.00,,,0.00,Wunderground v.1.15,2013-05-26 09:25:00,
2013-05-26 05:30:00,46.1,45.8,30.24,NNW,342,0.0,2.0,99,0.00,,,0.00,Wunderground v.1.15,2013-05-26 09:30:00,
2013-05-26 05:35:00,46.2,45.9,30.24,NNW,342,0.0,2.0,99,0.00,,,0.00,Wunderground v.1.15,2013-05-26 09:35:00,
2013-05-26 05:40:00,46.4,45.9,30.24,NNW,342,0.0,2.0,98,0.00,,,0.00,Wunderground v.1.15,2013-05-26 09:40:00,
2013-05-26 05:50:00,46.7,46.4,30.23,NNW,342,0.0,2.0,99,0.00,,,0.00,Wunderground v.1.15,2013-05-26 09:50:00,
2013-05-26 05:55:00,46.9,46.6,30.23,NNW,342,0.0,2.0,99,0.00,,,0.00,Wunderground v.1.15,2013-05-26 09:55:00,
2013-05-26 06:00:00,47.0,46.7,30.24,NNW,342,0.0,0.0,99,0.00,,,0.00,Wunderground v.1.15,2013-05-26 10:00:00,
2013-05-26 06:10:00,47.3,47.0,30.24,NNW,342,0.0,0.0,99,0.00,,,0.00,Wunderground v.1.15,2013-05-26 10:10:00,
2013-05-26 06:15:00,47.4,47.1,30.24,NNW,342,0.0,0.0,99,0.00,,,0.00,Wunderground v.1.15,2013-05-26 10:15:00,
2013-05-26 06:20:00,47.4,47.1,30.24,NNW,342,0.0,0.0,99,0.00,,,0.00,Wunderground v.1.15,2013-05-26 10:20:00,
2013-05-26 06:25:00,47.6,47.3,30.24,NNW,342,0.0,0.0,99,0.00,,,0.00,Wunderground v.1.15,2013-05-26 10:25:00,
2013-05-26 06:30:00,47.7,47.4,30.24,NNW,342,0.0,0.0,99,0.00,,,0.00,Wunderground v.1.15,2013-05-26 10:30:00,
2013-05-26 06:35:00,47.8,47.5,30.24,NNW,342,0.0,0.0,99,0.00,,,0.00,Wunderground v.1.15,2013-05-26 10:35:00,
2013-05-26 06:45:00,48.0,47.7,30.24,NNW,342,0.0,0.0,99,0.00,,,0.00,Wunderground v.1.15,2013-05-26 10:45:00,
2013-05-26 06:50:00,48.0,47.7,30.24,NNW,342,0.0,0.0,99,0.00,,,0.00,Wunderground v.1.15,2013-05-26 10:50:00,
2013-05-26 06:55:00,48.0,47.5,30.25,NNW,342,0.0,0.0,98,0.00,,,0.00,Wunderground v.1.15,2013-05-26 10:55:00,
2013-05-26 07:00:00,48.1,47.6,30.25,NNW,342,0.0,0.0,98,0.00,,,0.00,Wunderground v.1.15,2013-05-26 11:00:00,
2013-05-26 07:10:00,48.3,47.8,30.25,NNW,342,0.0,0.0,98,0.00,,,0.00,Wunderground v.1.15,2013-05-26 11:10:00,
2013-05-26 07:15:00,48.4,47.9,30.25,NNW,342,0.0,0.0,98,0.00,,,0.00,Wunderground v.1.15,2013-05-26 11:15:00,
2013-05-26 07:25:00,48.7,47.9,30.25,NNW,342,0.0,0.0,97,0.00,,,0.00,Wunderground v.1.15,2013-05-26 11:25:00,
2013-05-26 07:30:00,49.0,48.2,30.25,NNW,342,0.0,0.0,97,0.00,,,0.00,Wunderground v.1.15,2013-05-26 11:30:00,
2013-05-26 07:35:00,49.3,48.5,30.25,NNW,342,0.0,0.0,97,0.00,,,0.00,Wunderground v.1.15,2013-05-26 11:35:00,
2013-05-26 07:40:00,49.4,48.6,30.25,NNW,342,0.0,0.0,97,0.00,,,0.00,Wunderground v.1.15,2013-05-26 11:40:00,
2013-05-26 07:45:00,49.6,48.8,30.25,NNW,342,0.0,0.0,97,0.00,,,0.00,Wunderground v.1.15,2013-05-26 11:45:00,
2013-05-26 07:50:00,49.6,48.5,30.25,NNW,342,0.0,0.0,96,0.00,,,0.00,Wunderground v.1.15,2013-05-26 11:50:00,
2013-05-26 08:00:00,49.7,48.0,30.26,NNW,342,0.0,0.0,94,0.00,,,0.00,Wunderground v.1.15,2013-05-26 12:00:00,
2013-05-26 08:05:00,49.8,47.6,30.26,NNW,344,0.0,0.0,92,0.00,,,0.00,Wunderground v.1.15,2013-05-26 12:05:00,
2013-05-26 08:10:00,49.9,47.7,30.26,NNW,344,0.0,0.0,92,0.00,,,0.00,Wunderground v.1.15,2013-05-26 12:10:00,
2013-05-26 08:20:00,50.2,48.0,30.26,NNW,344,0.0,0.0,92,0.00,,,0.00,Wunderground v.1.15,2013-05-26 12:20:00,
2013-05-26 08:25:00,50.3,48.1,30.25,NNW,344,0.0,0.0,92,0.00,,,0.00,Wunderground v.1.15,2013-05-26 12:25:00,
2013-05-26 08:30:00,50.4,47.9,30.25,NNW,344,0.0,0.0,91,0.00,,,0.00,Wunderground v.1.15,2013-05-26 12:30:00,
2013-05-26 08:35:00,50.6,47.8,30.26,WSW,254,0.0,0.0,90,0.00,,,0.00,Wunderground v.1.15,2013-05-26 12:35:00,
2013-05-26 08:40:00,50.8,48.0,30.26,WSW,254,0.0,0.0,90,0.00,,,0.00,Wunderground v.1.15,2013-05-26 12:40:00,
2013-05-26 08:50:00,51.0,48.8,30.26,WSW,254,0.0,0.0,92,0.00,,,0.00,Wunderground v.1.15,2013-05-26 12:50:00,
2013-05-26 08:55:00,51.1,48.9,30.26,WSW,254,0.0,0.0,92,0.00,,,0.00,Wunderground v.1.15,2013-05-26 12:55:00,
2013-05-26 09:00:00,51.2,48.7,30.26,WSW,254,0.0,0.0,91,0.00,,,0.00,Wunderground v.1.15,2013-05-26 13:00:00,
2013-05-26 09:05:00,51.4,48.3,30.27,WSW,254,0.0,0.0,89,0.00,,,0.00,Wunderground v.1.15,2013-05-26 13:05:00,
2013-05-26 09:10:00,51.7,48.6,30.27,WSW,254,0.0,0.0,89,0.00,,,0.00,Wunderground v.1.15,2013-05-26 13:10:00,
2013-05-26 09:15:00,52.2,49.9,30.27,WSW,250,0.0,0.0,92,0.00,,,0.00,Wunderground v.1.15,2013-05-26 13:15:00,
2013-05-26 09:20:00,52.4,49.8,30.27,WSW,250,0.0,0.0,91,0.00,,,0.00,Wunderground v.1.15,2013-05-26 13:20:00,
2013-05-26 09:25:00,52.7,49.2,30.27,WSW,250,0.0,0.0,88,0.00,,,0.00,Wunderground v.1.15,2013-05-26 13:25:00,
2013-05-26 09:35:00,53.4,49.6,30.27,WSW,250,0.0,0.0,87,0.00,,,0.00,Wunderground v.1.15,2013-05-26 13:35:00,
2013-05-26 09:40:00,53.8,50.0,30.28,WSW,250,0.0,0.0,87,0.00,,,0.00,Wunderground v.1.15,2013-05-26 13:40:00,
2013-05-26 09:45:00,54.0,50.2,30.27,WSW,250,0.0,0.0,87,0.00,,,0.00,Wunderground v.1.15,2013-05-26 13:45:00,
2013-05-26 09:50:00,54.2,50.4,30.27,WSW,250,0.0,0.0,87,0.00,,,0.00,Wunderground v.1.15,2013-05-26 13:50:00,
2013-05-26 09:55:00,54.5,50.4,30.27,WSW,250,0.0,0.0,86,0.00,,,0.00,Wunderground v.1.15,2013-05-26 13:55:00,
2013-05-26 10:00:00,54.8,50.7,30.27,WSW,250,0.0,0.0,86,0.00,,,0.00,Wunderground v.1.15,2013-05-26 14:00:00,
2013-05-26 10:05:00,55.1,51.0,30.27,WSW,250,0.0,0.0,86,0.00,,,0.00,Wunderground v.1.15,2013-05-26 14:05:00,
2013-05-26 10:10:00,55.3,50.9,30.27,WSW,250,0.0,1.0,85,0.00,,,0.00,Wunderground v.1.15,2013-05-26 14:10:00,
2013-05-26 10:20:00,55.6,51.2,30.27,WSW,250,0.0,0.0,85,0.00,,,0.00,Wunderground v.1.15,2013-05-26 14:20:00,
2013-05-26 10:25:00,55.8,51.4,30.27,WSW,250,0.0,0.0,85,0.00,,,0.00,Wunderground v.1.15,2013-05-26 14:25:00,
2013-05-26 10:35:00,56.3,51.5,30.27,WSW,252,0.0,1.0,84,0.00,,,0.00,Wunderground v.1.15,2013-05-26 14:35:00,
2013-05-26 10:40:00,56.4,51.6,30.26,ESE,110,0.0,3.0,84,0.00,,,0.00,Wunderground v.1.15,2013-05-26 14:40:00,
2013-05-26 10:45:00,56.5,51.1,30.26,ESE,110,0.0,3.0,82,0.00,,,0.00,Wunderground v.1.15,2013-05-26 14:45:00,
2013-05-26 10:50:00,56.7,50.9,30.26,ESE,109,0.0,1.0,81,0.00,,,0.00,Wunderground v.1.15,2013-05-26 14:50:00,
2013-05-26 10:55:00,56.9,50.5,30.26,ESE,109,0.0,1.0,79,0.00,,,0.00,Wunderground v.1.15,2013-05-26 14:55:00,
2013-05-26 11:05:00,57.7,49.1,30.25,ESE,115,1.0,1.0,73,0.00,,,0.00,Wunderground v.1.15,2013-05-26 15:05:00,
2013-05-26 11:10:00,58.1,48.7,30.26,SE,129,1.0,1.0,71,0.00,,,0.00,Wunderground v.1.15,2013-05-26 15:10:00,
2013-05-26 11:15:00,58.3,47.8,30.25,ESE,110,1.0,1.0,68,0.00,,,0.00,Wunderground v.1.15,2013-05-26 15:15:00,
2013-05-26 11:20:00,58.7,47.8,30.25,ESE,109,1.0,1.0,67,0.00,,,0.00,Wunderground v.1.15,2013-05-26 15:20:00,
2013-05-26 11:25:00,59.1,47.3,30.25,East,97,1.0,1.0,65,0.00,,,0.00,Wunderground v.1.15,2013-05-26 15:25:00,
2013-05-26 11:30:00,59.5,46.5,30.26,East,83,1.0,2.0,62,0.00,,,0.00,Wunderground v.1.15,2013-05-26 15:30:00,
2013-05-26 11:35:00,59.6,47.8,30.25,ENE,76,1.0,4.0,65,0.00,,,0.00,Wunderground v.1.15,2013-05-26 15:35:00,
2013-05-26 11:40:00,59.6,48.2,30.26,ESE,105,1.0,2.0,66,0.00,,,0.00,Wunderground v.1.15,2013-05-26 15:40:00,
2013-05-26 11:45:00,59.8,47.2,30.26,ESE,113,0.0,2.0,63,0.00,,,0.00,Wunderground v.1.15,2013-05-26 15:45:00,
2013-05-26 11:55:00,60.3,46.8,30.26,SSE,159,0.0,1.0,61,0.00,,,0.00,Wunderground v.1.15,2013-05-26 15:55:00,
2013-05-26 12:00:00,60.5,47.4,30.26,East,85,1.0,1.0,62,0.00,,,0.00,Wunderground v.1.15,2013-05-26 16:00:00,
2013-05-26 12:05:00,60.6,48.8,30.26,East,85,0.0,1.0,65,0.00,,,0.00,Wunderground v.1.15,2013-05-26 16:05:00,
2013-05-26 12:10:00,60.8,48.5,30.26,East,100,0.0,2.0,64,0.00,,,0.00,Wunderground v.1.15,2013-05-26 16:10:00,
2013-05-26 12:15:00,61.1,48.8,30.26,ESE,102,0.0,2.0,64,0.00,,,0.00,Wunderground v.1.15,2013-05-26 16:15:00,
2013-05-26 12:20:00,61.8,49.5,30.26,ESE,111,0.0,1.0,64,0.00,,,0.00,Wunderground v.1.15,2013-05-26 16:20:00,
2013-05-26 12:25:00,62.0,48.8,30.25,SE,126,0.0,4.0,62,0.00,,,0.00,Wunderground v.1.15,2013-05-26 16:25:00,
2013-05-26 12:35:00,62.3,47.8,30.26,SE,135,0.0,1.0,59,0.00,,,0.00,Wunderground v.1.15,2013-05-26 16:35:00,
2013-05-26 12:40:00,62.3,50.8,30.25,East,98,0.0,1.0,66,0.00,,,0.00,Wunderground v.1.15,2013-05-26 16:40:00,
2013-05-26 12:45:00,62.3,47.8,30.26,ESE,107,1.0,1.0,59,0.00,,,0.00,Wunderground v.1.15,2013-05-26 16:45:00,
2013-05-26 12:50:00,62.6,48.1,30.25,SE,144,1.0,1.0,59,0.00,,,0.00,Wunderground v.1.15,2013-05-26 16:50:00,
2013-05-26 12:55:00,62.8,48.3,30.25,SSE,163,0.0,1.0,59,0.00,,,0.00,Wunderground v.1.15,2013-05-26 16:55:00,
2013-05-26 13:00:00,62.8,47.8,30.25,SSW,211,1.0,1.0,58,0.00,,,0.00,Wunderground v.1.15,2013-05-26 17:00:00,
2013-05-26 13:05:00,62.9,47.9,30.25,SE,144,1.0,1.0,58,0.00,,,0.00,Wunderground v.1.15,2013-05-26 17:05:00,
2013-05-26 13:10:00,63.1,49.0,30.25,SSE,158,1.0,1.0,60,0.00,,,0.00,Wunderground v.1.15,2013-05-26 17:10:00,
2013-05-26 13:20:00,63.5,47.5,30.25,South,174,0.0,1.0,56,0.00,,,0.00,Wunderground v.1.15,2013-05-26 17:20:00,
2013-05-26 13:25:00,63.6,48.5,30.25,East,88,0.0,1.0,58,0.00,,,0.00,Wunderground v.1.15,2013-05-26 17:25:00,
2013-05-26 13:30:00,63.5,49.4,30.25,SE,142,0.0,1.0,60,0.00,,,0.00,Wunderground v.1.15,2013-05-26 17:30:00,
2013-05-26 13:35:00,63.4,49.3,30.25,ESE,121,0.0,1.0,60,0.00,,,0.00,Wunderground v.1.15,2013-05-26 17:35:00,
2013-05-26 13:40:00,63.3,48.7,30.25,ESE,121,0.0,1.0,59,0.00,,,0.00,Wunderground v.1.15,2013-05-26 17:40:00,
2013-05-26 13:50:00,63.3,50.1,30.24,NE,36,0.0,1.0,62,0.00,,,0.00,Wunderground v.1.15,2013-05-26 17:50:00,
2013-05-26 13:55:00,63.5,50.2,30.23,SE,128,0.0,1.0,62,0.00,,,0.00,Wunderground v.1.15,2013-05-26 17:55:00,
2013-05-26 14:05:00,63.9,50.2,30.23,ESE,123,0.0,1.0,61,0.00,,,0.00,Wunderground v.1.15,2013-05-26 18:05:00,
2013-05-26 14:10:00,63.8,49.6,30.23,ESE,121,0.0,1.0,60,0.00,,,0.00,Wunderground v.1.15,2013-05-26 18:10:00,
2013-05-26 14:15:00,63.8,50.1,30.23,SW,226,1.0,1.0,61,0.00,,,0.00,Wunderground v.1.15,2013-05-26 18:15:00,
2013-05-26 14:20:00,63.7,50.0,30.24,SW,217,1.0,1.0,61,0.00,,,0.00,Wunderground v.1.15,2013-05-26 18:20:00,
2013-05-26 14:25:00,63.4,50.1,30.24,SSW,192,0.0,1.0,62,0.00,,,0.00,Wunderground v.1.15,2013-05-26 18:25:00,
2013-05-26 14:30:00,63.2,51.2,30.25,SSW,192,0.0,1.0,65,0.00,,,0.00,Wunderground v.1.15,2013-05-26 18:30:00,
2013-05-26 14:35:00,62.9,53.0,30.24,SSW,192,0.0,1.0,70,0.00,,,0.01,Wunderground v.1.15,2013-05-26 18:35:00,
2013-05-26 14:40:00,62.6,54.2,30.24,SSW,192,0.0,1.0,74,0.44,,,0.04,Wunderground v.1.15,2013-05-26 18:40:00,
2013-05-26 14:45:00,61.6,55.7,30.23,SSW,192,0.0,1.0,81,0.15,,,0.05,Wunderground v.1.15,2013-05-26 18:45:00,
2013-05-26 14:55:00,60.0,55.8,30.23,SSW,192,0.0,1.0,86,0.09,,,0.06,Wunderground v.1.15,2013-05-26 18:55:00,
2013-05-26 15:00:00,59.8,56.2,30.23,SSW,192,0.0,1.0,88,0.05,,,0.06,Wunderground v.1.15,2013-05-26 19:00:00,
2013-05-26 15:05:00,59.8,56.9,30.22,SSW,192,0.0,1.0,90,0.04,,,0.06,Wunderground v.1.15,2013-05-26 19:05:00,
2013-05-26 15:10:00,59.9,57.6,30.21,SSW,192,0.0,1.0,92,0.00,,,0.06,Wunderground v.1.15,2013-05-26 19:10:00,
2013-05-26 15:15:00,59.8,57.5,30.20,SSW,192,0.0,1.0,92,0.00,,,0.06,Wunderground v.1.15,2013-05-26 19:15:00,
2013-05-26 15:20:00,59.7,57.7,30.20,ESE,116,0.0,1.0,93,0.00,,,0.06,Wunderground v.1.15,2013-05-26 19:20:00,
2013-05-26 15:25:00,59.8,58.1,30.20,ESE,116,0.0,2.0,94,0.00,,,0.06,Wunderground v.1.15,2013-05-26 19:25:00,
2013-05-26 15:35:00,59.9,57.9,30.20,SE,128,1.0,1.0,93,0.00,,,0.06,Wunderground v.1.15,2013-05-26 19:35:00,
2013-05-26 15:40:00,59.9,57.6,30.19,ESE,121,1.0,3.0,92,0.00,,,0.06,Wunderground v.1.15,2013-05-26 19:40:00,
2013-05-26 15:45:00,59.8,57.5,30.19,East,88,1.0,3.0,92,0.00,,,0.06,Wunderground v.1.15,2013-05-26 19:45:00,
2013-05-26 15:50:00,59.9,57.9,30.19,ESE,119,1.0,1.0,93,0.00,,,0.06,Wunderground v.1.15,2013-05-26 19:50:00,
2013-05-26 16:00:00,59.9,57.3,30.19,ENE,74,0.0,1.0,91,0.00,,,0.06,Wunderground v.1.15,2013-05-26 20:00:00,
2013-05-26 16:05:00,60.0,57.7,30.18,SE,130,0.0,1.0,92,0.00,,,0.06,Wunderground v.1.15,2013-05-26 20:05:00,
2013-05-26 16:15:00,60.1,56.8,30.18,East,85,1.0,1.0,89,0.00,,,0.06,Wunderground v.1.15,2013-05-26 20:15:00,
2013-05-26 16:20:00,60.4,57.8,30.17,ENE,77,1.0,1.0,91,0.00,,,0.06,Wunderground v.1.15,2013-05-26 20:20:00,
2013-05-26 16:25:00,60.5,57.9,30.18,ENE,76,0.0,2.0,91,0.00,,,0.06,Wunderground v.1.15,2013-05-26 20:25:00,
2013-05-26 16:30:00,60.7,57.7,30.17,SE,124,0.0,1.0,90,0.00,,,0.06,Wunderground v.1.15,2013-05-26 20:30:00,
2013-05-26 16:35:00,60.8,57.5,30.18,ESE,122,0.0,1.0,89,0.00,,,0.06,Wunderground v.1.15,2013-05-26 20:35:00,
2013-05-26 16:45:00,61.4,56.8,30.18,NE,49,1.0,1.0,85,0.00,,,0.06,Wunderground v.1.15,2013-05-26 20:45:00,
2013-05-26 16:50:00,62.2,57.3,30.18,East,84,0.0,1.0,84,0.00,,,0.06,Wunderground v.1.15,2013-05-26 20:50:00,
2013-05-26 16:55:00,62.9,57.7,30.18,SSE,159,1.0,1.0,83,0.00,,,0.06,Wunderground v.1.15,2013-05-26 20:55:00,
2013-05-26 17:00:00,63.3,57.7,30.18,ESE,108,1.0,1.0,82,0.00,,,0.06,Wunderground v.1.15,2013-05-26 21:00:00,
2013-05-26 17:10:00,63.4,57.8,30.18,ESE,116,1.0,1.0,82,0.00,,,0.06,Wunderground v.1.15,2013-05-26 21:10:00,
2013-05-26 17:15:00,63.6,58.0,30.19,ESE,115,0.0,1.0,82,0.00,,,0.06,Wunderground v.1.15,2013-05-26 21:15:00,
2013-05-26 17:20:00,63.9,58.3,30.18,ESE,109,0.0,1.0,82,0.00,,,0.06,Wunderground v.1.15,2013-05-26 21:20:00,
2013-05-26 17:25:00,64.2,57.9,30.19,ENE,62,1.0,2.0,80,0.00,,,0.06,Wunderground v.1.15,2013-05-26 21:25:00,
2013-05-26 17:30:00,64.4,57.0,30.19,ENE,75,1.0,1.0,77,0.00,,,0.06,Wunderground v.1.15,2013-05-26 21:30:00,
2013-05-26 17:35:00,64.4,56.7,30.19,East,82,1.0,2.0,76,0.00,,,0.06,Wunderground v.1.15,2013-05-26 21:35:00,
2013-05-26 17:40:00,64.5,57.8,30.18,East,96,1.0,1.0,79,0.00,,,0.06,Wunderground v.1.15,2013-05-26 21:40:00,
2013-05-26 17:45:00,64.9,57.9,30.17,SE,126,0.0,1.0,78,0.00,,,0.06,Wunderground v.1.15,2013-05-26 21:45:00,
2013-05-26 17:50:00,65.3,56.4,30.17,ENE,71,1.0,1.0,73,0.00,,,0.06,Wunderground v.1.15,2013-05-26 21:50:00,
2013-05-26 17:55:00,65.9,59.2,30.17,East,84,1.0,1.0,79,0.00,,,0.06,Wunderground v.1.15,2013-05-26 21:55:00,
2013-05-26 18:00:00,66.7,58.1,30.16,ESE,110,1.0,2.0,74,0.00,,,0.06,Wunderground v.1.15,2013-05-26 22:00:00,
2013-05-26 18:05:00,67.2,57.9,30.16,SSE,147,2.0,2.0,72,0.00,,,0.06,Wunderground v.1.15,2013-05-26 22:05:00,
2013-05-26 18:10:00,67.3,57.2,30.16,ENE,78,2.0,2.0,70,0.00,,,0.06,Wunderground v.1.15,2013-05-26 22:10:00,
2013-05-26 18:15:00,66.9,57.2,30.16,NE,47,2.0,2.0,71,0.00,,,0.06,Wunderground v.1.15,2013-05-26 22:15:00,
2013-05-26 18:25:00,66.1,56.4,30.16,ESE,114,1.0,2.0,71,0.00,,,0.06,Wunderground v.1.15,2013-05-26 22:25:00,
2013-05-26 18:30:00,65.8,56.5,30.15,ENE,61,1.0,1.0,72,0.00,,,0.06,Wunderground v.1.15,2013-05-26 22:30:00,
2013-05-26 18:40:00,65.5,56.2,30.15,ESE,115,0.0,1.0,72,0.00,,,0.06,Wunderground v.1.15,2013-05-26 22:40:00,
2013-05-26 18:45:00,65.4,56.9,30.15,East,93,0.0,1.0,74,0.00,,,0.06,Wunderground v.1.15,2013-05-26 22:45:00,
2013-05-26 18:50:00,65.4,57.3,30.15,SE,127,1.0,1.0,75,0.00,,,0.06,Wunderground v.1.15,2013-05-26 22:50:00,
2013-05-26 18:55:00,65.2,55.9,30.15,ESE,121,0.0,1.0,72,0.00,,,0.06,Wunderground v.1.15,2013-05-26 22:55:00,
2013-05-26 19:00:00,64.9,56.0,30.14,ESE,111,1.0,1.0,73,0.00,,,0.06,Wunderground v.1.15,2013-05-26 23:00:00,
2013-05-26 19:05:00,64.6,56.1,30.14,ESE,119,1.0,1.0,74,0.00,,,0.06,Wunderground v.1.15,2013-05-26 23:05:00,
2013-05-26 19:10:00,64.3,55.8,30.15,SE,133,1.0,1.0,74,0.00,,,0.06,Wunderground v.1.15,2013-05-26 23:10:00,
2013-05-26 19:20:00,63.9,56.2,30.14,SE,128,0.0,1.0,76,0.00,,,0.06,Wunderground v.1.15,2013-05-26 23:20:00,
2013-05-26 19:25:00,63.7,56.4,30.14,ESE,103,0.0,1.0,77,0.00,,,0.06,Wunderground v.1.15,2013-05-26 23:25:00,
2013-05-26 19:35:00,63.2,56.2,30.14,ESE,117,0.0,2.0,78,0.00,,,0.06,Wunderground v.1.15,2013-05-26 23:35:00,
2013-05-26 19:40:00,63.0,55.7,30.13,ESE,117,0.0,1.0,77,0.00,,,0.06,Wunderground v.1.15,2013-05-26 23:40:00,
2013-05-26 19:45:00,62.9,55.6,30.13,ESE,119,0.0,1.0,77,0.00,,,0.06,Wunderground v.1.15,2013-05-26 23:45:00,
2013-05-26 19:50:00,62.8,55.8,30.13,ESE,119,0.0,1.0,78,0.00,,,0.06,Wunderground v.1.15,2013-05-26 23:50:00,
2013-05-26 19:55:00,62.7,56.8,30.12,ESE,119,0.0,1.0,81,0.00,,,0.06,Wunderground v.1.15,2013-05-26 23:55:00,
2013-05-26 20:00:00,62.6,56.3,30.12,ESE,119,0.0,1.0,80,0.00,,,0.06,Wunderground v.1.15,2013-05-27 00:00:00,
2013-05-26 20:05:00,62.4,55.8,30.12,ESE,107,0.0,1.0,79,0.00,,,0.06,Wunderground v.1.15,2013-05-27 00:05:00,
2013-05-26 20:10:00,62.3,56.7,30.12,ESE,107,0.0,1.0,82,0.00,,,0.06,Wunderground v.1.15,2013-05-27 00:10:00,
2013-05-26 20:15:00,62.1,56.5,30.12,ESE,107,0.0,1.0,82,0.00,,,0.06,Wunderground v.1.15,2013-05-27 00:15:00,
2013-05-26 20:20:00,62.0,56.8,30.12,ESE,107,0.0,1.0,83,0.00,,,0.06,Wunderground v.1.15,2013-05-27 00:20:00,
2013-05-26 20:25:00,61.8,56.2,30.12,ESE,107,0.0,1.0,82,0.00,,,0.06,Wunderground v.1.15,2013-05-27 00:25:00,
2013-05-26 20:30:00,61.7,56.5,30.12,ESE,107,0.0,1.0,83,0.00,,,0.06,Wunderground v.1.15,2013-05-27 00:30:00,
2013-05-26 20:40:00,61.5,56.6,30.12,ESE,112,0.0,2.0,84,0.00,,,0.06,Wunderground v.1.15,2013-05-27 00:40:00,
2013-05-26 20:45:00,61.4,56.2,30.12,ESE,123,0.0,2.0,83,0.00,,,0.06,Wunderground v.1.15,2013-05-27 00:45:00,
2013-05-26 20:50:00,61.3,56.1,30.12,ESE,123,0.0,1.0,83,0.00,,,0.06,Wunderground v.1.15,2013-05-27 00:50:00,
2013-05-26 20:55:00,61.2,56.0,30.12,East,86,0.0,1.0,83,0.00,,,0.06,Wunderground v.1.15,2013-05-27 00:55:00,
2013-05-26 21:00:00,61.0,55.8,30.12,East,86,0.0,1.0,83,0.00,,,0.06,Wunderground v.1.15,2013-05-27 01:00:00,
2013-05-26 21:05:00,61.0,55.5,30.13,NE,50,0.0,1.0,82,0.00,,,0.06,Wunderground v.1.15,2013-05-27 01:05:00,
2013-05-26 21:10:00,61.0,55.8,30.13,NE,50,0.0,1.0,83,0.00,,,0.06,Wunderground v.1.15,2013-05-27 01:10:00,
2013-05-26 21:15:00,61.2,55.0,30.14,NW,309,1.0,1.0,80,0.00,,,0.06,Wunderground v.1.15,2013-05-27 01:15:00,
2013-05-26 21:20:00,61.3,55.1,30.15,NW,314,1.0,1.0,80,0.00,,,0.06,Wunderground v.1.15,2013-05-27 01:20:00,
2013-05-26 21:25:00,61.4,54.8,30.15,ESE,102,0.0,1.0,79,0.00,,,0.06,Wunderground v.1.15,2013-05-27 01:25:00,
2013-05-26 21:30:00,61.5,54.6,30.14,ENE,62,0.0,1.0,78,0.00,,,0.06,Wunderground v.1.15,2013-05-27 01:30:00,
2013-05-26 21:35:00,61.6,55.0,30.15,NE,51,0.0,1.0,79,0.00,,,0.06,Wunderground v.1.15,2013-05-27 01:35:00,
2013-05-26 21:40:00,61.5,55.3,30.15,NE,36,0.0,1.0,80,0.00,,,0.06,Wunderground v.1.15,2013-05-27 01:40:00,
2013-05-26 21:45:00,61.4,55.5,30.15,NE,36,0.0,1.0,81,0.00,,,0.06,Wunderground v.1.15,2013-05-27 01:45:00,
2013-05-26 21:50:00,61.0,56.1,30.14,NE,36,0.0,1.0,84,0.00,,,0.07,Wunderground v.1.15,2013-05-27 01:50:00,
2013-05-26 21:55:00,60.3,55.8,30.15,North,10,1.0,1.0,85,0.00,,,0.07,Wunderground v.1.15,2013-05-27 01:55:00,
2013-05-26 22:00:00,59.8,55.6,30.16,NW,304,1.0,1.0,86,0.00,,,0.07,Wunderground v.1.15,2013-05-27 02:00:00,
2013-05-26 22:05:00,59.4,55.5,30.16,NW,307,1.0,1.0,87,0.04,,,0.08,Wunderground v.1.15,2013-05-27 02:05:00,
2013-05-26 22:10:00,59.0,55.8,30.16,NW,307,0.0,1.0,89,0.30,,,0.10,Wunderground v.1.15,2013-05-27 02:10:00,
2013-05-26 22:15:00,58.6,55.7,30.17,NW,307,0.0,1.0,90,0.16,,,0.11,Wunderground v.1.15,2013-05-27 02:15:00,
2013-05-26 22:20:00,58.4,56.1,30.15,NNW,344,0.0,1.0,92,0.15,,,0.12,Wunderground v.1.15,2013-05-27 02:20:00,
2013-05-26 22:25:00,58.0,56.0,30.15,ESE,111,0.0,1.0,93,0.31,,,0.14,Wunderground v.1.15,2013-05-27 02:25:00,
2013-05-26 22:30:00,57.7,56.0,30.15,SE,128,0.0,1.0,94,0.30,,,0.16,Wunderground v.1.15,2013-05-27 02:30:00,
2013-05-26 22:35:00,57.5,55.8,30.15,SE,128,0.0,1.0,94,0.21,,,0.18,Wunderground v.1.15,2013-05-27 02:35:00,
2013-05-26 22:40:00,57.2,55.8,30.16,SE,128,0.0,1.0,95,0.33,,,0.20,Wunderground v.1.15,2013-05-27 02:40:00,
2013-05-26 22:45:00,57.1,55.7,30.17,SW,227,0.0,2.0,95,0.34,,,0.22,Wunderground v.1.15,2013-05-27 02:45:00,
2013-05-26 22:50:00,57.0,55.6,30.16,SW,228,0.0,1.0,95,0.44,,,0.26,Wunderground v.1.15,2013-05-27 02:50:00,
2013-05-26 23:00:00,56.9,55.8,30.14,SSE,151,0.0,1.0,96,0.28,,,0.36,Wunderground v.1.15,2013-05-27 03:00:00,
2013-05-26 23:05:00,56.8,56.0,30.13,ESE,117,0.0,1.0,97,0.12,,,0.37,Wunderground v.1.15,2013-05-27 03:05:00,
2013-05-26 23:10:00,56.8,56.0,30.13,SE,141,1.0,1.0,97,0.16,,,0.39,Wunderground v.1.15,2013-05-27 03:10:00,
2013-05-26 23:15:00,56.8,56.0,30.13,NNW,330,1.0,1.0,97,0.16,,,0.40,Wunderground v.1.15,2013-05-27 03:15:00,
2013-05-26 23:20:00,56.8,56.0,30.12,SE,129,1.0,1.0,97,0.09,,,0.40,Wunderground v.1.15,2013-05-27 03:20:00,
2013-05-26 23:30:00,56.8,56.0,30.12,ENE,70,0.0,1.0,97,0.11,,,0.42,Wunderground v.1.15,2013-05-27 03:30:00,
2013-05-26 23:35:00,56.8,56.0,30.12,ENE,71,0.0,1.0,97,0.38,,,0.44,Wunderground v.1.15,2013-05-27 03:35:00,
2013-05-26 23:40:00,56.9,56.3,30.12,SE,133,0.0,1.0,98,0.49,,,0.46,Wunderground v.1.15,2013-05-27 03:40:00,
2013-05-26 23:45:00,56.9,56.3,30.12,SE,130,0.0,1.0,98,0.97,,,0.51,Wunderground v.1.15,2013-05-27 03:45:00,
2013-05-26 23:50:00,57.0,56.4,30.11,NE,53,0.0,1.0,98,0.49,,,0.57,Wunderground v.1.15,2013-05-27 03:50:00,
2013-05-26 23:55:00,57.1,56.5,30.12,NE,53,0.0,1.0,98,0.56,,,0.62,Wunderground v.1.15,2013-05-27 03:55:00,